auto_repair_shop.id,auto_repair_shop.ts,auto_repair_shop.title,auto_repair_shop.address,auto_repair_shop.phone,auto_repair_shop.latitude,auto_repair_shop.longitude
1,"2017-10-18 22:35:58","Sam Jacks Automotive","4100 Veterans Memorial Drive, Adamsville, AL, 35005","(205) 674-6448",33.5924,-86.9924
2,"2017-10-18 22:36:18","Wade's Collision Repair","1307 S Main St, Graysville, AL, 35073","(205) 674-1701",33.6144,-86.9656
3,"2017-10-18 22:36:24","Michael's Auto Repair & Towing","5520 Sanders Ave, Adamsville, AL, 35005","(205) 674-7786",33.6083,-86.9588
4,"2017-10-18 22:36:33","Jett's Towing & Automotive","5013 Main Street, Adamsville, AL, 35005","(205) 674-0135",33.6018,-86.9552
5,"2017-10-18 22:36:45","Dan's Auto Repair","4290 Main Street, Adamsville, AL, 35005","(205) 674-0103",33.595,-86.9468
6,"2017-10-18 22:37:04","Gooch Paint & Body","5501 Veterans Memorial Parkway, Adamsville, AL, 35005","(205) 674-8004",33.5874,-86.9328
7,"2017-10-18 22:38:09","Rich's Collision Center","3708 Veterans Memorial Drive, Adamsville, AL, 35005","(205) 674-5051",33.5862,-86.9308
8,"2017-10-18 22:38:18","Cagle's Automotive","3618 Veterans Memorial Drive, Adamsville, AL, 35005","(205) 674-1384",33.5862,-86.9307
9,"2017-10-18 22:38:26","Walmart Tire & Lube Express","2473 Hackworth Rd, Birmingham, AL, 35214","(205) 798-9721",33.581,-86.9228
10,"2017-10-18 22:38:32","Park West Radiator Shop","404 Johnson Street, Adamsville, AL, 35005","(205) 674-8912",33.5924,-86.9924
11,"2017-10-18 22:46:37","Unreal Auto Graphics & Signs","5006 Lapine Drive, Adamsville, AL, 35005","(205) 674-9728",33.593,-87.0045
12,"2017-10-18 22:46:40","Michael's Auto Repair & Towing","5520 Sanders Avenue, Adamsville, AL, 35005","(205) 674-7786",33.6081,-86.9585
13,"2017-10-18 22:46:49","Four Ace Towing Shop","4213 Basswood Circle, Adamsville, AL, 35005","(205) 674-9027",33.5821,-86.9547
14,"2017-10-18 22:46:53","Honeycutt Garage","612 10th Street N, Birmingham, AL, 35005","(205) 326-6251",33.606,-86.9528
15,"2017-10-18 22:46:57","Auto Repair","216 Pine Avenue, Adamsville, AL, 35005","(205) 786-9258",33.5606,-86.9701
16,"2017-10-18 22:47:05","Screaming Wheels Customs","4008 Flowers Street, Adamsville, AL, 35005","(205) 674-8620",33.5881,-86.9484
17,"2017-10-18 22:47:08","Barry's Performance Machine Shop","1280 S Main St, Graysville, AL, 35073","(205) 674-0367",33.6142,-86.9668
18,"2017-10-18 22:47:10","Car Country Inc","1280 S Main St, Graysville, AL, 35073","(205) 674-1818",33.6142,-86.9668
19,"2017-10-18 22:47:17","Martin's Import Service","P O Box 357, Graysville, AL, 35073","(205) 674-8611",33.6207,-86.9714
20,"2017-10-18 22:47:29","Nix Diesel Service","P O Box 446, Graysville, AL, 35073","(205) 674-6400",33.6207,-86.9714
21,"2017-10-18 22:47:36","Tractor Trailer Repair Inc","P O Box 600, Graysville, AL, 35073","(205) 674-1651",33.6207,-86.9714
22,"2017-10-18 22:48:47","Dale's Automotive","P O Box 616, Mulga, AL, 35118","(205) 491-0153",33.5498,-86.9742
23,"2017-10-18 22:48:58","E Z Oil & Lube","219 1st Ave, Mulga, AL, 35118","(205) 786-7770",33.5472,-86.9774
24,"2017-10-18 22:49:02","Michaels Auto Sales & Towing","2709 Arnett St, Birmingham, AL, 35214","(205) 798-7700",33.5828,-86.9218
25,"2017-10-18 22:49:08","Victory GMC Trucks","1150 George Roy Pkwy, Calera, AL, 35040","(205) 664-0046",33.1493,-86.7665
26,"2017-10-18 22:49:13","Fairway Automart","916 1st Street S, Alabaster, AL, 35007","(205) 621-7933",33.2184,-86.7955
27,"2017-10-18 22:49:19","Texaco Xpress Lube","851 Highway 31 S, Alabaster, AL, 35007","(205) 663-1690",33.224,-86.773
28,"2017-10-18 22:49:24","Walmart Supercenter (Walmart tire & Lube Express)","630 Colonial Promenade Parkway, Alabaster, AL, 35007","(205) 620-0360",33.224,-86.773
29,"2017-10-18 22:49:31","Express Tire & Auto Services Center","8177 Alabama 119, Alabaster, AL, 35007","(205) 620-3488",33.224,-86.773
30,"2017-10-18 22:49:40","National Tire & Battery","70 Jimmy Gould Drive, Alabaster, AL, 35007","(205) 620-0959",33.224,-86.773
31,"2017-10-18 22:49:47","Ernest McCarty Ford","1471 First Street North, Alabaster, AL, 35007","(205) 663-3831",33.2283,-86.7718
32,"2017-10-18 22:49:53","Professional Paint & Body, Inc.","6282 Highway 119 South, Alabaster, AL, 35007","(205) 664-2639",33.2283,-86.7718
33,"2017-10-18 22:50:11","Wheeler's Wrecker Service","129 1st Ave W,, Alabaster, AL, 35007","(205) 664-9000",33.2283,-86.7718
34,"2017-10-18 22:50:18","Melton Automotive","718 Fulton Springs Rd.,, Alabaster, AL, 35007","(205) 663-6088",33.2127,-86.8171
35,"2017-10-18 22:50:30","Express Oil Change","136 1st St N, Alabaster, AL, 35007","(205) 663-2073",33.2444,-86.816
36,"2017-10-18 22:50:44","119 Collision Center","9378 Highway 119 S, Alabaster, AL, 35007","(205) 620-0334",33.2443,-86.8164
37,"2017-10-18 22:50:46","First Place Finish","1520 Simmsville Rd #1300, Alabaster, AL, 35007","(205) 620-0993",33.2443,-86.8164
38,"2017-10-18 22:50:58","Velasco Auto Body Shop","7823 Highway 119, Alabaster, AL, 35007","(205) 621-5885",33.2443,-86.8164
39,"2017-10-18 22:51:02","Alabaster Auto Services","100 1st Ave W, Alabaster, AL, 35007","(205) 664-0270",33.2441,-86.817
40,"2017-10-18 22:51:11","Tim's Garage","124 8th Avenue Northwest, Alabaster, AL, 35007","(205) 685-8592",33.2524,-86.8155
41,"2017-10-18 22:51:16","A To Z Auto Inc","500 Meadowlark Place, Alabaster, AL, 35007","(205) 620-4426",33.1958,-86.831
42,"2017-10-18 22:51:20","Davids Auto Clinic LLC","1227 1st St N, Alabaster, AL, 35007","(205) 664-3053",33.2583,-86.8131
43,"2017-10-18 22:51:26","Precision Tune Auto Care","1328 1st St N, Alabaster, AL, 35007","(205) 358-7779",33.2595,-86.8125
44,"2017-10-18 22:51:32","Cahaba Tire","3406 Pelham Parkway, Pelham, AL, 35124","(205) 663-0433",33.272,-86.8106
45,"2017-10-18 22:51:44","Kirkland Wrecker Services","1365 McCain Parkway, Pelham, AL, 35124","(205) 663-0364",33.2771,-86.7979
46,"2017-10-18 22:51:48","Lovelady Automotive Service Center","3347 Pelham Pkwy, Pelham, AL, 35124","(205) 663-9220",33.2742,-86.8109
47,"2017-10-18 22:51:53","Howard Bentley Buick GMC","4321 US Highway 431, Albertville, AL, 35950","(256) 878-1050",34.2519,-86.2571
48,"2017-10-18 22:52:00","Whitaker Towing Services","7473 US Highway 431, Albertville, AL, 35950","(256) 891-3511",34.2519,-86.2571
49,"2017-10-18 22:52:03","Westmoreland Tire Company, Inc.","8099 US Highway 431, Albertville, AL, 35950","(256) 878-5728",34.2519,-86.2571
50,"2017-10-18 22:52:11","Alexander Mazda","7710 Hwy 431, Albertville, AL, 35950","(256) 878-0281",34.2512,-86.2362
51,"2017-10-18 22:52:13","Auto-Medics Inc","114 Sand Mountain Drive, Albertville, AL, 35950","(256) 878-3912",34.2512,-86.2362
52,"2017-10-18 22:52:18","B's Express Lube","1716 Blount Ave, Guntersville, AL, 35976","(256) 582-5823",34.2512,-86.2362
53,"2017-10-18 22:52:27","Ed's Express Lube","410 North Carlisle Street, Albertville, AL, 35950","(256) 878-5313",34.2512,-86.2362
54,"2017-10-18 22:52:35","Lynn Entrekin","1299 West Meighan Boulevard, Gadsden, AL, 35901","(256) 891-7592",34.2512,-86.2362
55,"2017-10-18 22:52:51","Gilbert & Baker Country Ford","10195 US HWY 431 North, Albertville, AL, 35950","(256) 891-3000",34.2512,-86.2362
56,"2017-10-18 22:53:03","Nolan Newman Motors Inc","9628 Highway 431 North, Albertville, AL, 35950","(256) 878-6421",34.2512,-86.2362
57,"2017-10-18 22:53:10","Gary Rogers Motors","9793 US Highway 431, Albertville, AL, 35950","(256) 878-2684",34.289,-86.2416
58,"2017-10-18 22:53:22","Moultrie Nissan","9736 US Highway 431, Albertville, AL, 35950","(256) 878-4390",34.2884,-86.2395
59,"2017-10-18 22:53:28","J & M Repair and Restoration Inc","9023 US Highway 431, Albertville, AL, 35950","(256) 891-0010",34.2862,-86.2337
60,"2017-10-18 22:53:36","Tanner Auto Electric","8958 US Highway 431, Albertville, AL, 35950","(256) 878-4383",34.286,-86.2326
61,"2017-10-18 22:53:41","Cannady Body Shop","400 Natasha Drive, Albertville, AL, 35950","(256) 891-4810",34.2741,-86.2134
62,"2017-10-18 22:53:51","R & D Towing","729 Wentfrew Rd, Albertville, AL, 35950","(256) 878-8489",34.2676,-86.2089
63,"2017-10-18 22:54:08","Quality Auto Sales","11480 Highway 431, Guntersville, AL, 35976","(256) 891-7155",34.2788,-86.2126
64,"2017-10-18 22:54:12","Wilks Tire & Battery Service","428 N Broad Street, Albertville, AL, 35950","(256) 878-0211",34.2728,-86.2063
65,"2017-10-18 22:54:15","Del Toro Mechanic Shop","512 Baltimore Ave, Albertville, AL, 35950","(256) 891-0059",34.2597,-86.2001
66,"2017-10-18 22:54:20","Alexander Dodge Chrysler Jeep","6764 US Highway 431, Albertville, AL, 35950","(256) 891-2277",34.2729,-86.1986
67,"2017-10-18 22:54:23","Carr's Garage","6499 US Highway 431, Albertville, AL, 35950","(256) 891-8990",34.2688,-86.1951
68,"2017-10-18 22:54:37","H & H Body Shop","5937 US Highway 431, Albertville, AL, 35950","(256) 878-8511",34.2631,-86.19
69,"2017-10-18 22:55:47","Bud's Auto Repair","812 Janet St, Albertville, AL, 35951","(256) 878-9323",34.2594,-86.1857
70,"2017-10-18 22:55:57","Bobby Miller Body Shop","112 Adams Dr, Albertville, AL, 35950","(256) 878-1927",34.2458,-86.1769
71,"2017-10-18 22:57:05","Kerley Mortor Company Inc","1720 Dadeville Rd, Alexander City, AL, 35010","(256) 234-5331",32.9061,-85.937
72,"2017-10-18 22:57:17","Goautomotive Consultants","2190 Hwy 280, Alexander City, AL, 35010","(256) 794-3634",32.9061,-85.937
73,"2017-10-18 22:57:25","Walmart Tire & Lube Express","2643 Highway 280 W, Alexander City, AL, 35010","(256) 234-2603",32.9061,-85.937
74,"2017-10-18 22:57:32","Express Oil Change & Service Center","768 Airport Drive, Alexander City, AL, 35010","(256) 234-6559",32.9214,-85.9424
75,"2017-10-18 22:57:41","Moncrief's Garage","1810 Dadeville Road, Alexander City, AL, 35010","(256) 329-9865",32.9265,-85.939
76,"2017-10-18 22:57:44","Norwood's Paint & Body Shop","2227 Dadeville Road, Alexander City, AL, 35010","(256) 329-1550",32.9279,-85.941
77,"2017-10-18 22:57:55","S & S Discount Tire","857 Cherokee Rd, Alexander City, AL, 35010","(256) 215-8822",32.9257,-85.9478
78,"2017-10-18 22:57:56","Mac's Tire & Services Center","553 Alex City Shopping Ctr Dr, Alexander City, AL, 35010","(256) 234-5005",32.9311,-85.9457
79,"2017-10-18 22:58:01","Bice Chrysler Dodge Jeep","2133 Cherokee Road, Alexander City, AL, 35010","(256) 234-2501",32.9307,-85.9482
80,"2017-10-18 22:58:05","Zajac's Auto Collision Inc","793 Airport Drive,, Alexander City, AL, 35010","(256) 329-9963",32.9394,-85.9466
81,"2017-10-18 22:58:16","Alex City Muffler","477 Madison St, Alexander City, AL, 35010","(256) 212-9393",32.9391,-85.9529
82,"2017-10-18 22:58:24","Hand's Service Station","350 Tallapoosa St, Alexander City, AL, 35010","(256) 329-1862",32.9438,-85.9489
83,"2017-10-18 22:58:32","Ingram's Garage","141 Lee St, Alexander City, AL, 35010","(256) 329-9423",32.9433,-85.9558
84,"2017-10-18 22:59:39","Tallapoosa Ford Mercury","1551 Hwy 280, Alexander City, AL, 35010","(256) 234-3432",32.9437,-85.9833
85,"2017-10-18 22:59:51","Downtown Body Shop Inc","790 Airport Drive, Alexander City, AL, 35010","(256) 234-2201",32.9214,-85.9425
86,"2017-10-18 22:59:54","Alexander City Transmission Specailist","1501 Tallapoosa Street, Alexander City, AL, 35010","(256) 234-6230",32.9487,-85.9391
87,"2017-10-18 23:00:03","G A M Auto","1565a Airport Dr, Alexander City, AL, 35010","(256) 234-2573",32.9198,-85.9571
88,"2017-10-18 23:00:16","Pennington's Automobile & Small Engine","11499 Highway 280, Jacksons Gap, AL, 36861","(256) 825-6082",32.886,-85.8701
89,"2017-10-18 23:00:26","Lake Martin Garage 24 Hour Towing","11133 Highway 280, Jacksons Gap, AL, 36861","(256) 825-6139",32.8859,-85.8695
90,"2017-10-18 23:00:37","McGuire Auto Sales Used Parts Inc","750 Cherokee Rd, Alexander City, AL, 35010","(256) 329-0764",32.9372,-85.9529
91,"2017-10-18 23:01:47","Midway Auto Inc","10634 Highway 280, Jacksons Gap, AL, 36861","(256) 825-9830",32.8852,-85.863
92,"2017-10-18 23:02:03","Henderson Auto Glass","1090 Tallapoosa St, Alexander City, AL, 35010","(256) 234-5464",32.9474,-85.9405
93,"2017-10-18 23:02:15","Waynes Auto & Tractor Repair","Highway 22, Alexander City, AL, 35010","(256) 234-2924",32.944,-85.9538
94,"2017-10-18 23:02:27","Stark Carburetor & Electric Co","155 Wheeler Street, Alexander City, AL, 35010","(256) 234-2596",32.9449,-85.9559
95,"2017-10-18 23:02:38","Mashburn Body Shop","4314 US Highway 278, Walnut Grove, AL, 35990","(205) 589-4676",34.0665,-86.3041
96,"2017-10-18 23:02:45","Blount County Customs","38 Kassie St, Altoona, AL, 35952","(205) 466-3303",34.0262,-86.3261
97,"2017-10-18 23:02:56","Jimmy's Body Shop & Wrecker Services","211 Blackmon Dr, Altoona, AL, 35952","(205) 466-3601",34.0262,-86.3261
98,"2017-10-18 23:03:01","Snead Auto Sales","33 Richman Dr, Altoona, AL, 35952","(205) 466-3336",34.0262,-86.3261
99,"2017-10-18 23:03:07","Snead Transmission","35 Larue Dr, Altoona, AL, 35952","(205) 466-7161",34.0262,-86.3261
100,"2017-10-18 23:03:11","Steve's Auto Service","7088 7th Ave, Altoona, AL, 35952","(205) 589-4211",34.0237,-86.3245
